Regional Weather Roundup
Issued by NWS

Home | Current Version | Previous Version | Text Only | Print | Product List | Glossary Off
Versions: 1 2 3 4 5 6 7 8 9 10 11 12 13 14 15 16 17 18 19 20 21 22 23 24 25 26 27 28 29 30 31 32 33 34 35 36 37 38 39 40 41 42 43 44 45 46 47 48 49 50

000
ASUS43 KMKX 241811
RWRWI

WISCONSIN REGIONAL WEATHER ROUNDUP
NATIONAL WEATHER SERVICE MILWAUKEE/SULLIVAN WI
100 PM CDT FRI MAR 24 2017

NOTE: "FAIR" INDICATES FEW OR NO CLOUDS BELOW 12,000 FEET WITH NO
SIGNIFICANT WEATHER AND/OR OBSTRUCTIONS TO VISIBILITY.

WIZ001-002-006>008-014>016-023>028-241900-
NORTHWEST WISCONSIN

CITY           SKY/WX    TMP DP  RH WIND       PRES   REMARKS
SUPERIOR ARPT  CLOUDY    38  34  84 NE6       30.11R WCI  34
6HR MIN TEMP:  32; 6HR MAX TEMP:  39;

ASHLAND        CLOUDY    38  33  82 N10       30.09R WCI  31
6HR MIN TEMP:  32; 6HR MAX TEMP:  39;

HAYWARD        CLOUDY    40  34  79 N10       30.04R WCI  33
6HR MIN TEMP:  35; 6HR MAX TEMP:  41;

SIREN          CLOUDY    41  34  75 NE10      30.06R
6HR MIN TEMP:  34; 6HR MAX TEMP:  41;

CUMBERLAND     CLOUDY    37  34  87 N9        30.04R WCI  31
RICE LAKE      CLOUDY    40  37  87 N12       30.05R WCI  33
6HR MIN TEMP:  35; 6HR MAX TEMP:  40; 6HR PCP:  0.04;

CHETEK         CLOUDY    39  36  89 N3        30.04R
6HR MIN TEMP:  35; 6HR MAX TEMP:  39; 6HR PCP:  0.05;

LADYSMITH      CLOUDY    39  36  89 N10       30.04R WCI  32
6HR MIN TEMP:  35; 6HR MAX TEMP:  39; 6HR PCP:  0.12;

EAU CLAIRE     CLOUDY    39  37  92 N7        30.02R WCI  34
6HR MIN TEMP:  37; 6HR MAX TEMP:  40; 6HR PCP:  0.07;

MENOMONIE      DRIZZLE   40  37  92 N9        30.03R WCI  33
6HR MIN TEMP:  38; 6HR MAX TEMP:  40; 6HR PCP:  0.06;

NEW RICHMOND   CLOUDY    40  37  87 NE10      30.03S WCI  34
6HR MIN TEMP:  36; 6HR MAX TEMP:  40; 6HR PCP:  0.01;

OSCEOLA        CLOUDY    42  36  78 N12       30.06F
6HR MIN TEMP:  36; 6HR MAX TEMP:  42;

$$

WIZ003>005-009-010-017-018-241900-
NORTH CENTRAL WISCONSIN

CITY           SKY/WX    TMP DP  RH WIND       PRES   REMARKS
MANITOWISH WTR CLOUDY    33  33 100 NE6       30.02R FOG     WCI  28
6HR MIN TEMP:  32; 6HR MAX TEMP:  33;

ARBOR VITAE    CLOUDY    37  36  96 N8        30.00S FOG     WCI  30
6HR MIN TEMP:  34; 6HR MAX TEMP:  37; 6HR PCP:  0.12;

WOODRUFF       CLOUDY    37  36  96 N8        30.00S FOG     WCI  30
6HR MIN TEMP:  34; 6HR MAX TEMP:  37; 6HR PCP:  0.12;

RHINELANDER    LGT RAIN  36  35  96 N7        30.00R FOG     WCI  30
6HR MIN TEMP:  34; 6HR MAX TEMP:  37; 6HR PCP:  0.20;

EAGLE RIVER    CLOUDY    33  33 100 NE8       30.01R FOG     WCI  26
6HR MIN TEMP:  32; 6HR MAX TEMP:  34;

LAND O LAKES   CLOUDY    33  33 100 N6        30.03R FOG     WCI  28
6HR MIN TEMP:  33; 6HR MAX TEMP:  33; 6HR PCP:  0.12;

PHILLIPS       CLOUDY    35  35  99 N9        30.01S WCI  28
6HR MIN TEMP:  32; 6HR MAX TEMP:  35; 6HR PCP:  0.25;

TOMAHAWK       RAIN      35  33  92 N7        30.01R WCI  29
6HR MIN TEMP:  32; 6HR MAX TEMP:  36;

MEDFORD        LGT RAIN  36  34  94 N7        29.98R WCI  30
6HR MIN TEMP:  34; 6HR MAX TEMP:  36; 6HR PCP:  0.17;

MERRILL        LGT RAIN  37  37  99 NE7       29.99R WCI  31
6HR MIN TEMP:  33; 6HR MAX TEMP:  37; 6HR PCP:  0.23;

$$

WIZ029-030-035-036-043>047-241900-
CENTRAL WISCONSIN

CITY           SKY/WX    TMP DP  RH WIND       PRES   REMARKS
WAUSAU         LGT RAIN  38  36  92 NE6       29.96R WCI  33
6HR MIN TEMP:  34; 6HR MAX TEMP:  38; 6HR PCP:  0.11;

MOSINEE        CLOUDY    37  37 100 NE8       29.98R FOG     WCI  31
MARSHFIELD     LGT RAIN  38  37  97 NE8       29.97R FOG     WCI  32
6HR MIN TEMP:  36; 6HR MAX TEMP:  38; 6HR PCP: TRACE;

STEVENS POINT  RAIN      36  36 100 NE8       29.97R WCI  29
6HR MIN TEMP:  33; 6HR MAX TEMP:  36; 6HR PCP:  0.01;

WAUPACA        DRIZZLE   39  37  90 NE3       29.97S
6HR MIN TEMP:  38; 6HR MAX TEMP:  40;

WAUTOMA        CLOUDY    40  37  89 NE10      29.96R WCI  33
6HR MIN TEMP:  38; 6HR MAX TEMP:  42;

WISC RAPIDS    LGT RAIN  38  38 100 E8        29.97R FOG     WCI  32
6HR MIN TEMP:  38; 6HR MAX TEMP:  40; 6HR PCP:  0.03;

CAMP DOUGLAS   CLOUDY    41  37  87 N9        29.96R
                                      6HR PCP: TRACE;

$$

WIZ011>013-019>022-031-037>040-048>050-241900-
NORTHEAST WISCONSIN

CITY           SKY/WX    TMP DP  RH WIND       PRES   REMARKS
ANTIGO         LGT RAIN  35  35 100 NE7       29.98R WCI  29
6HR MIN TEMP:  32; 6HR MAX TEMP:  35; 6HR PCP:  0.13;

SHAWANO        DRIZZLE   38  36  92 NE6       29.99F WCI  33
6HR MIN TEMP:  36; 6HR MAX TEMP:  38; 6HR PCP:  0.03;

OCONTO         CLOUDY    36  35  94 N5        30.01R WCI  32
6HR MIN TEMP:  34; 6HR MAX TEMP:  37; 6HR PCP:  0.04;

STURGEON BAY   LGT RAIN  35  34  96 N10       30.02R FOG     WCI  27
6HR MIN TEMP:  35; 6HR MAX TEMP:  38; 6HR PCP:  0.02;

GREEN BAY      RAIN      38  37  97 NE13      29.99R FOG     WCI  30
6HR MIN TEMP:  37; 6HR MAX TEMP:  41; 6HR PCP:  0.09;

MANITOWOC      CLOUDY    43  36  76 NE9       29.97R
6HR MIN TEMP:  37; 6HR MAX TEMP:  47;

APPLETON       CLOUDY    37  34  87 N14       29.95R FOG     WCI  29
CLINTONVILLE   LGT RAIN  36  34  93 NE8       29.99R WCI  29
OSHKOSH        CLOUDY    44  37  76 NE15      29.94S
6HR MIN TEMP:  38; 6HR MAX TEMP:  45;

$$

WIZ032>034-041-042-053>061-241900-
SOUTHWEST WISCONSIN

CITY           SKY/WX    TMP DP  RH WIND       PRES   REMARKS
LA CROSSE      CLOUDY    43  41  93 N8        29.96R FOG
6HR MIN TEMP:  41; 6HR MAX TEMP:  43; 6HR PCP:  0.03;

SPARTA         CLOUDY    41  40  98 N5        29.98R FOG
6HR MIN TEMP:  39; 6HR MAX TEMP:  42; 6HR PCP:  0.03;

VIROQUA        CLOUDY    45  42  91 N7        29.92R
6HR MIN TEMP:  40; 6HR MAX TEMP:  45; 6HR PCP:  0.01;

BOSCOBEL       PTSUNNY   57  45  64 E7        29.86F
6HR MIN TEMP:  38; 6HR MAX TEMP:  58;

PRAIRIE DU CHI CLOUDY    50  42  72 NW8       29.93R
6HR MIN TEMP:  39; 6HR MAX TEMP:  52;

PLATTEVILLE    CLOUDY    67  51  56 W9        29.87R
6HR MIN TEMP:  43; 6HR MAX TEMP:  68;

$$

WIZ056-057-062-063-064-067-068-241900-
SOUTH CENTRAL WISCONSIN

CITY           SKY/WX    TMP DP  RH WIND       PRES   REMARKS
REEDSBURG      CLOUDY    53  43  70 E3        29.89F
6HR MIN TEMP:  40; 6HR MAX TEMP:  53;

BARABOO/DELLS  CLOUDY    53  42  65 E7        29.90F
6HR MIN TEMP:  39; 6HR MAX TEMP:  53;

LONE ROCK      CLOUDY    59  47  64 CALM      29.89S HAZE
6HR MIN TEMP:  37; 6HR MAX TEMP:  59;

MINERAL POINT  MOSUNNY   61  50  67 N8        29.88R
MADISON        PTSUNNY   59  48  67 N8        29.89S
6HR MIN TEMP:  40; 6HR MAX TEMP:  60;

MIDDLETON      PTSUNNY   59  49  68 N3        29.90R
6HR MIN TEMP:  40; 6HR MAX TEMP:  59;

WATERTOWN      SUNNY     59  49  69 NW5       29.90R
6HR MIN TEMP:  41; 6HR MAX TEMP:  60;

MONROE         SUNNY     70  48  46 W17G26    29.87R
JANESVILLE     PTSUNNY   75  48  38 W21G28    29.85F
$$

WIZ051-052-058>065-066-070>072-241900-
SOUTHEAST WISCONSIN

CITY           SKY/WX    TMP DP  RH WIND       PRES   REMARKS
MILWAUKEE      PTSUNNY   54  41  61 NE12      29.90S
6HR MIN TEMP:  41; 6HR MAX TEMP:  65;

WAUKESHA       SUNNY     64  48  55 W10G17    29.90S
MILWAUKEE/TIMM PTSUNNY   63  43  48 NE5       29.89F
RACINE         MOSUNNY   58  44  60 E13       29.89F
6HR MIN TEMP:  45; 6HR MAX TEMP:  70;

KENOSHA        MOSUNNY   75  51  43 W22G29    29.87F
6HR MIN TEMP:  49; 6HR MAX TEMP:  75;

FOND DU LAC    CLOUDY    47  39  74 NE15      29.94S
6HR MIN TEMP:  39; 6HR MAX TEMP:  51;

SHEBOYGAN      PTSUNNY   50  42  74 NE14      29.94R
6HR MIN TEMP:  35; 6HR MAX TEMP:  52;

WEST BEND      MOSUNNY   61  48  63 W6        29.91S
JUNEAU         SUNNY     57  47  69 N8        29.92S
6HR MIN TEMP:  39; 6HR MAX TEMP:  57;

$$

LSZ147-162-241900-
LAKE SUPERIOR

STATION/POSITION TIME  TEMP    WIND        PRES    WAVE
                       AIR SEA DIR/SP/G            HT/PER
                 (UTC) (F)     (DEG/KT/KT) (MB)    (FT/S)
DEVILS ISLAND    1800   36      10/  6/  6 1019.9R
PORT WING        1740   36      20/  5/  6 1019.0R
SAXON HARBOR     1730   35     320/  1/  1 1017.9S
$$

LMZ867-665-643>646-241900-
LAKE MICHIGAN

STATION/POSITION TIME  TEMP    WIND        PRES    WAVE
                       AIR SEA DIR/SP/G            HT/PER
                 (UTC) (F)     (DEG/KT/KT) (MB)    (FT/S)
CHAMBERS ISLAND  1740   34     350/  8/  9



USA.gov is the U.S. government's official web portal to all federal, state and local government web resources and services.